COSMOS 1275 DEB

Satellite information

Favourite Embed

Satellite Type and Status

DEBRISIN ORBIT

Key statistics

Satellite COSMOS 1275 DEB at a glance.

Uptime

16104

Days in orbit

Revolutions

≈ 13.9

Per day

Orbit

LEO

Low Earth Orbit

Inclination

83.1

Latest

Satellite identification and parameters

Extended collection of information and parameters for COSMOS 1275 DEB.

Object identification

Identified? True

Debris? True

Object name: COSMOS 1275 DEB

International designator: 1981-053LC

Object number (NORAD): 17633

Object ID (CCSDS): 17633

Country: COMMONWEALTH OF INDEPENDENT STATES (CIS)

Current information (Y/N): Y

RCS size: SMALL

Orbital parameters

Period: 103.861 minutes

Inclination: 83.0654 deg

SMA: 7319.191 km

Apoapsis: 1058.153 km

Periapsis: 823.958 km

RAAN: 31.3941 deg

Eccentricy: 0.0159987

Argument of periapsis: 297.4257 deg

Mean anomaly: 115.5316 deg

Mean motion: 13.8646259 rev/day

Mean motion (dot): 0.00002426 rev/day2

B* drag term: 0.0018825 1/REarth

Two-line elements (TLE)

Creation date: July 6, 2025, 2:16 p.m.

Reference frame: TEME

Reference center: EARTH

Epoch: July 6, 2025, 1:49 p.m. UTC

TLE line 0: 0 COSMOS 1275 DEB

TLE line 1: 1 17633U 81053LC 25187.57604928 .00002426 00000-0 18825-2 0 9991

TLE line 2: 2 17633 83.0654 31.3941 0159987 297.4257 115.5316 13.86462590993629

Live tracking on map

Real-time ground track for satellite COSMOS 1275 DEB.

In-orbit conjunctions

A list of the most updated potential collisions computed for object COSMOS 1275 DEB.

Target Orbit TCA Probability of collision Miss distance Type
METEOR 2-17 DEB LEO 2024-11-10 21:29:56 0.0001422475 854.0 (m) DEBRIS

Associated space launch

Navigation satellite providing location information for the Tsiklon-B navigation system

COSMOS 1275 DEB was lifted into orbit during the mission ‘Kosmos-3M | Parus 27’, on board a Kosmos-3M space rocket.

The launch took place on June 4, 1981, 3:41 p.m. from 132/2.

For more information about the launch, click the button.

Launch to space Kosmos-3M | Parus 27
Kosmos-3M | Parus 27

Agency: N/A

Status: Launch Successful

Launch date: June 4, 1981, 3:41 p.m. UTC

Rocket: Kosmos-3M

Launch pad: 132/2

Location: Plesetsk Cosmodrome, Russian Federation

...

Latest news about this satellite

There are no fresh news available about this satellite. Check back as we update our databases every day.


Newsletter sign-up

Weekly statistics, charts and insights to help you stay on top of the space industry.